C/2006 X1 ( LINEAR )

Japanese version
Home page
Updated on April 3, 2008

---------------------------------------------------------------------

* Profile

Discovery Date December 11, 2006
Magnitude 19.2 mag
Discoverer Lincoln Laboratory Near-Earth Asteroid Research project

* Orbital Elements

The following orbital elements are taken from MPC 59875:

Epoch 2006 Mar. 6.0 TT = JDT 2453800.5
T 2006 Mar. 5.8231 TT                                   MPC
q   6.126320             (2000.0)            P               Q
z  +0.000143       Peri.  101.2923      +0.7477392      +0.1103278
 +/-0.000047       Node   255.2495      -0.2589579      +0.9564691
e   0.999125       Incl.   42.6156      +0.6114139      +0.2701751
From 95 observations 2006 Dec. 11-2007 Feb. 15, mean residual 0".5.

* Magnitudes Graph

        m1 = 6.5 + 5 log d + 10.0 log r

---------------------------------------------------------------------

The orbital elements are published at the MPC Ephemerides and Orbital Elements.
The magnitudes graphs are made with Comet for Windows.

---------------------------------------------------------------------

Copyright(C) Seiichi Yoshida (comet@aerith.net). All rights reserved.